Flag for U.S.A. Weather past 2 weeks in Reston, Virginia, U.S.A.

Now
76 °F

Broken clouds.


Feels Like: 76 °F
Forecast: 70 / 87 °F
Wind: 3 mph from Southeast

Location: Washington-Dulles International Airport

Current Time: Jul 27, 2015 at 9:50:13 PM

Latest Report: Jul 27, 2015 at 8:52 PM


Visibility: 10 mi

Pressure: 29.98 "Hg

Humidity: 85%

Dew point: 71 °F

Location of RestonLocation

Historic Weather in Reston — Graph

°F

Reston temperature yesterday

Maximum temperature yesterday: 88 °F (at 1:52 PM)
Minimum temperature yesterday: 69 °F (at 5:52 AM)
Average temperature yesterday: 79 °F

Past Weeks' High & Low Weather Summary

 TemperatureHumidityPressure
High93 °F (Jul 19, 2:52 PM)100% (Jul 14, 12:00 AM)30.09 "Hg (Jul 14, 12:00 AM)
Low32 °F (Jul 17, 6:53 AM)35% (Jul 24, 11:52 AM)29.53 "Hg (Jul 14, 8:52 PM)
Average76 °F71%29.88 "Hg
* Reported Jul 12 8:52 PM — Jul 27 8:52 PM, Reston, Weather by CustomWeather, © 2015

Note: Actual official high and low records may vary slightly from our data, if they occured in-between our weather recording intervals... More about our weather records

Advertising

Reston weather history for previous 24 hours

 ConditionsComfort  
Time TempWeatherWind HumidityBarometerVisibility
8:52 PM
Mon, Jul 27
76 °FBroken clouds.3 mph85%29.98 "Hg10 mi
7:52 PM79 °FBroken clouds.7 mph79%29.97 "Hg10 mi
6:52 PM82 °FScattered clouds.No wind70%29.96 "Hg10 mi
5:52 PM82 °FScattered clouds.6 mph65%29.96 "Hg10 mi
4:52 PM78 °FScattered clouds.6 mph74%29.96 "Hg10 mi
3:52 PM78 °FThunderstorms. Mostly cloudy.3 mph79%29.98 "Hg10 mi
2:52 PM84 °FMostly cloudy.3 mph67%29.96 "Hg10 mi
1:52 PM84 °FBroken clouds.No wind67%29.98 "Hg10 mi
12:52 PM84 °FPartly sunny.3 mph65%29.99 "Hg10 mi
11:52 AM80 °FPartly sunny.3 mph71%29.99 "Hg10 mi
10:52 AM78 °FPartly sunny.No wind76%30.00 "Hg10 mi
9:52 AM76 °FBroken clouds.No wind80%29.99 "Hg10 mi
8:52 AM75 °FBroken clouds.No wind82%29.99 "Hg10 mi
7:52 AM72 °FPartly sunny.3 mph91%29.98 "Hg10 mi
6:52 AM70 °FPassing clouds.No wind97%29.97 "Hg9 mi
5:52 AM71 °FPassing clouds.3 mph93%29.96 "Hg8 mi
4:52 AM71 °FLight rain. Mostly cloudy.7 mph93%29.95 "Hg7 mi
3:52 AM73 °FRain. Mostly cloudy.6 mph84%29.94 "Hg6 mi
2:52 AM76 °FOvercast.7 mph74%29.95 "Hg10 mi
1:52 AM76 °FPassing clouds.7 mph74%29.95 "Hg10 mi
12:52 AM77 °FPassing clouds.8 mph69%29.95 "Hg10 mi
11:52 PM
Sun, Jul 26
78 °FMostly cloudy.8 mph66%29.96 "Hg10 mi
10:52 PM79 °FMostly cloudy.8 mph67%29.95 "Hg10 mi
9:52 PM80 °FMostly cloudy.8 mph67%29.96 "Hg10 mi
Weather by CustomWeather, © 2015

See weather overviewHow to use our weather pages